FW3266 Weather Reports


Display with metric or nautical units.
time (UTC)temp
F
wind
direction
speed
MPH
gust
MPH
rain 1hr
in
rain 24hr
in
rain mn
in
humidity
%
barometer
mb
20260508190121 55 74 2.0 5.0 0.00 0.00 0.00 53 1009.7
20260508185342 56 123 2.0 7.0 0.00 0.00 0.00 54 1009.7
20260508184837 55 88 4.0 7.0 0.00 0.00 0.00 48 1009.6
20260508184332 56 209 2.0 6.0 0.00 0.00 0.00 54 1009.8
20260508184326 56 221 3.0 7.0 0.00 0.00 0.00 52 1009.7
20260508183319 56 101 4.0 7.0 0.00 0.00 0.00 54 1009.6
20260508182814 57 94 2.0 5.0 0.00 0.00 0.00 51 1009.7
20260508182311 57 52 2.0 8.0 0.00 0.00 0.00 52 1009.8
20260508181803 56 86 6.0 8.0 0.00 0.00 0.00 55 1009.6
20260508181306 56 176 2.0 8.0 0.00 0.00 0.00 55 1009.7
20260508180801 56 253 3.0 6.0 0.00 0.00 0.00 53 1009.6
20260508180755 55 254 2.0 6.0 0.00 0.00 0.00 51 1009.6
20260508175752 55 53 3.0 8.0 0.00 0.00 0.00 50 1009.6
20260508175248 56 150 4.0 8.0 0.00 0.00 0.00 52 1009.5
20260508174746 56 1 4.0 7.0 0.00 0.00 0.00 51 1009.7
20260508174242 58 195 2.0 4.0 0.00 0.00 0.00 51 1009.9
20260508173742 59 188 1.0 7.0 0.00 0.00 0.00 49 1009.7
20260508173238 60 158 2.0 7.0 0.00 0.00 0.00 44 1009.7
20260508172732 60 129 2.0 7.0 0.00 0.00 0.00 41 1009.7
20260508172229 61 30 3.0 10.0 0.00 0.00 0.00 38 1009.8
20260508171720 61 321 3.0 10.0 0.00 0.00 0.00 38 1009.8
20260508171214 61 208 3.0 10.0 0.00 0.00 0.00 38 1009.7
20260508170709 62 243 4.0 10.0 0.00 0.00 0.00 39 1009.6
20260508170204 61 257 4.0 8.0 0.00 0.00 0.00 37 1009.8
20260508165929 61 129 2.0 6.0 0.00 0.00 0.00 36 1009.7
20260508165152 62 234 4.0 9.0 0.00 0.00 0.00 36 1009.8
20260508164647 62 349 4.0 12.0 0.00 0.00 0.00 43 1009.8
20260508164141 61 329 4.0 12.0 0.00 0.00 0.00 42 1009.9
20260508163643 61 290 4.0 7.0 0.00 0.00 0.00 39 1009.9
20260508163137 62 157 1.0 8.0 0.00 0.00 0.00 36 1009.9
20260508162637 63 328 4.0 10.0 0.00 0.00 0.00 34 1009.9
20260508162421 62 310 3.0 10.0 0.00 0.00 0.00 37 1010.0
20260508161632 61 332 2.0 8.0 0.00 0.00 0.00 39 1010.1
20260508161126 60 206 3.0 10.0 0.00 0.00 0.00 40 1010.1
20260508160619 60 322 4.0 10.0 0.00 0.00 0.00 38 1010.2
20260508160114 61 245 4.0 8.0 0.00 0.00 0.00 35 1010.2
20260508155609 61 34 4.0 8.0 0.00 0.00 0.00 39 1010.3
20260508155104 61 240 4.0 9.0 0.00 0.00 0.00 36 1010.3
20260508154559 61 297 4.0 10.0 0.00 0.00 0.00 37 1010.3
20260508154057 61 2 4.0 10.0 0.00 0.00 0.00 42 1010.3
20260508153552 61 243 3.0 9.0 0.00 0.00 0.00 36 1010.3
20260508153101 62 295 3.0 6.0 0.00 0.00 0.00 42 1010.4
20260508153055 62 240 4.0 9.0 0.00 0.00 0.00 36 1010.3
20260508152042 60 260 3.0 8.0 0.00 0.00 0.00 41 1010.4
20260508151536 60 307 4.0 8.0 0.00 0.00 0.00 38 1010.6
20260508151031 60 305 4.0 15.0 0.00 0.00 0.00 39 1010.7
20260508150533 61 359 4.0 15.0 0.00 0.00 0.00 39 1010.6
20260508150025 61 359 3.0 8.0 0.00 0.00 0.00 37 1010.5
20260508145526 61 310 4.0 8.0 0.00 0.00 0.00 38 1010.6
20260508145021 60 243 3.0 9.0 0.00 0.00 0.00 39 1010.7
20260508144748 60 359 4.0 9.0 0.00 0.00 0.00 38 1010.7
20260508144016 60 254 6.0 8.0 0.00 0.00 0.00 37 1010.5
20260508143508 59 330 3.0 9.0 0.00 0.00 0.00 39 1010.7
20260508143239 59 304 4.0 12.0 0.00 0.00 0.00 38 1010.6
20260508142505 59 302 5.0 12.0 0.00 0.00 0.00 38 1010.6
20260508141959 60 345 5.0 10.0 0.00 0.00 0.00 42 1010.6
20260508141502 60 291 3.0 9.0 0.00 0.00 0.00 42 1010.7
20260508140955 59 319 2.0 11.0 0.00 0.00 0.00 42 1010.7
20260508140453 59 302 4.0 11.0 0.00 0.00 0.00 43 1010.8
20260508135948 59 323 5.0 11.0 0.00 0.00 0.00 38 1010.9
20260508135449 58 27 3.0 8.0 0.00 0.00 0.00 43 1010.9
20260508134945 58 274 4.0 9.0 0.00 0.00 0.00 39 1011.1
20260508134449 58 259 7.0 14.0 0.00 0.00 0.00 41 1011.1
20260508134443 58 341 6.0 14.0 0.00 0.00 0.00 42 1011.0
20260508133702 58 303 4.0 9.0 0.00 0.00 0.00 41 1011.1
20260508132922 58 331 3.0 9.0 0.00 0.00 0.00 43 1011.0
20260508132417 58 22 4.0 9.0 0.00 0.00 0.00 41 1011.1
20260508131903 58 343 5.0 12.0 0.00 0.00 0.00 42 1011.0
20260508131404 58 328 4.0 12.0 0.00 0.00 0.00 42 1011.0
20260508130900 57 340 3.0 7.0 0.00 0.00 0.00 41 1011.0
20260508130355 57 27 4.0 7.0 0.00 0.00 0.00 43 1011.1
20260508125855 57 53 3.0 7.0 0.00 0.00 0.00 44 1011.0
20260508125348 57 6 2.0 6.0 0.00 0.00 0.00 45 1011.1
20260508124848 56 277 3.0 6.0 0.00 0.00 0.00 45 1011.1
20260508124345 56 314 2.0 6.0 0.00 0.00 0.00 47 1011.1
20260508123839 56 353 3.0 7.0 0.00 0.00 0.00 47 1011.1
20260508123334 55 354 2.0 7.0 0.00 0.00 0.00 51 1011.2
20260508123109 54 338 3.0 7.0 0.00 0.00 0.00 48 1011.2
20260508122326 54 267 4.0 7.0 0.00 0.00 0.00 50 1011.2
20260508122116 54 273 3.0 7.0 0.00 0.00 0.00 47 1011.2
20260508121322 54 295 3.0 6.0 0.00 0.00 0.00 51 1011.2
20260508120817 53 345 2.0 6.0 0.00 0.00 0.00 52 1011.3
20260508120311 53 356 3.0 7.0 0.00 0.00 0.00 53 1011.3
20260508115815 52 335 3.0 7.0 0.00 0.00 0.00 52 1011.4
20260508115307 52 288 1.0 8.0 0.00 0.00 0.00 52 1011.4
20260508114754 51 305 3.0 8.0 0.00 0.00 0.00 54 1011.3
20260508114253 51 333 2.0 6.0 0.00 0.00 0.00 58 1011.4
20260508113750 50 294 2.0 4.0 0.00 0.00 0.00 58 1011.3
20260508113244 50 306 2.0 4.0 0.00 0.01 0.00 58 1011.3
20260508112737 49 321 1.0 5.0 0.00 0.02 0.00 60 1011.2
20260508112506 49 321 2.0 5.0 0.00 0.03 0.00 60 1011.2
20260508111726 49 291 2.0 6.0 0.00 0.04 0.00 61 1011.2
20260508111220 48 295 3.0 6.0 0.00 0.05 0.00 61 1011.2
20260508110718 48 312 3.0 5.0 0.00 0.05 0.00 62 1011.1
20260508110215 47 297 2.0 4.0 0.00 0.05 0.00 62 1011.0
20260508105711 47 281 2.0 4.0 0.00 0.05 0.00 64 1010.9
20260508105207 47 301 2.0 5.0 0.00 0.05 0.00 64 1010.9
20260508104705 46 299 2.0 5.0 0.00 0.05 0.00 65 1010.7
20260508104434 46 303 2.0 4.0 0.00 0.05 0.00 66 1010.7
20260508103659 46 300 2.0 4.0 0.00 0.05 0.00 67 1010.7
20260508103427 45 305 2.0 4.0 0.00 0.05 0.00 67 1010.8
20260508102655 45 313 1.0 4.0 0.00 0.06 0.00 68 1010.7
20260508102143 44 311 2.0 4.0 0.00 0.06 0.00 69 1010.7
20260508101638 43 307 2.0 4.0 0.00 0.07 0.00 72 1010.6
20260508101422 42 307 2.0 3.0 0.00 0.08 0.00 74 1010.4
20260508101143 42 307 1.0 2.0 0.00 0.08 0.00 74 1010.5
20260508101139 42 307 2.0 3.0 0.00 0.07 0.00 73 1010.5
20260508095623 42 307 1.0 3.0 0.00 0.08 0.00 73 1010.4
20260508095123 42 314 1.0 3.0 0.00 0.08 0.00 73 1010.4
20260508094611 42 314 1.0 2.0 0.00 0.08 0.00 72 1010.4
20260508094105 43 314 0.0 3.0 0.00 0.08 0.00 72 1010.2
20260508093835 43 314 2.0 3.0 0.00 0.09 0.00 72 1010.3
20260508093049 42 313 2.0 3.0 0.00 0.09 0.00 72 1010.3
20260508092540 42 313 2.0 3.0 0.00 0.09 0.00 73 1010.2
20260508092036 42 314 2.0 3.0 0.00 0.09 0.00 74 1010.2
20260508091800 42 314 2.0 4.0 0.00 0.09 0.00 75 1010.1
20260508091016 41 314 2.0 4.0 0.00 0.09 0.00 76 1010.2
20260508090511 41 346 2.0 3.0 0.00 0.10 0.00 78 1010.1
20260508085958 40 346 2.0 3.0 0.00 0.10 0.00 79 1010.2
20260508085502 40 346 2.0 3.0 0.00 0.10 0.00 80 1010.0
20260508084956 39 346 1.0 3.0 0.00 0.11 0.00 80 1010.0
20260508084448 39 346 2.0 3.0 0.00 0.11 0.00 79 1009.9
20260508083944 39 346 1.0 2.0 0.00 0.12 0.00 79 1009.8
20260508083438 40 346 0.0 0.0 0.00 0.12 0.00 78 1009.9
20260508082934 40 346 0.0 0.0 0.00 0.14 0.00 77 1009.9
20260508082433 40 346 0.0 0.0 0.00 0.17 0.00 76 1009.8
20260508081928 40 346 0.0 1.0 0.00 0.19 0.00 76 1009.6
20260508081422 41 346 0.0 1.0 0.00 0.21 0.00 76 1009.5
20260508081148 41 346 0.0 0.0 0.00 0.22 0.00 75 1009.5
20260508080410 41 346 0.0 0.0 0.00 0.22 0.00 75 1009.4
20260508075911 41 346 0.0 0.0 0.00 0.26 0.00 74 1009.3
20260508075406 42 346 0.0 0.0 0.00 0.31 0.00 74 1009.2
20260508074853 42 346 0.0 0.0 0.00 0.35 0.00 73 1009.1
20260508074621 42 346 0.0 0.0 0.00 0.35 0.00 73 1009.1
20260508074106 43 346 0.0 0.0 0.00 0.35 0.00 71 1008.9
20260508073608 43 346 0.0 0.0 0.00 0.35 0.00 71 1008.8
20260508072831 44 346 0.0 0.0 0.00 0.35 0.00 70 1008.7
20260508072330 44 346 0.0 0.0 0.00 0.35 0.00 70 1008.8
20260508071825 44 346 0.0 0.0 0.00 0.35 0.00 68 1008.8
20260508071313 45 346 0.0 2.0 0.00 0.35 0.00 68 1008.8
20260508070808 45 346 0.0 3.0 0.00 0.35 0.00 66 1008.7
20260508070301 46 346 1.0 3.0 0.00 0.35 0.00 65 1008.8
20260508070027 46 347 2.0 5.0 0.00 0.35 0.00 64 1008.7
20260508065258 46 340 2.0 5.0 0.00 0.35 0.00 63 1008.8
20260508064736 47 327 1.0 5.0 0.00 0.35 0.00 63 1008.8
20260508064234 47 319 2.0 5.0 0.00 0.35 0.00 62 1008.7
20260508063951 47 327 2.0 5.0 0.00 0.35 0.00 61 1008.7
20260508063213 48 324 2.0 4.0 0.00 0.35 0.00 61 1008.8
20260508062713 48 311 2.0 5.0 0.00 0.35 0.00 60 1008.7
20260508062210 49 345 2.0 5.0 0.00 0.35 0.00 59 1008.7
20260508061704 49 11 1.0 5.0 0.00 0.35 0.00 58 1008.7
20260508061203 49 340 2.0 6.0 0.00 0.35 0.00 58 1008.7
20260508060702 49 1 3.0 6.0 0.00 0.35 0.00 57 1008.7
20260508060158 49 1 2.0 5.0 0.00 0.35 0.00 57 1008.7
20260508055653 50 51 2.0 8.0 0.00 0.35 0.00 56 1008.7
20260508055150 50 359 2.0 8.0 0.00 0.35 0.00 55 1008.7
20260508054639 50 330 3.0 6.0 0.00 0.35 0.00 55 1008.6
20260508054133 51 347 4.0 8.0 0.00 0.35 0.00 54 1008.6
20260508053630 51 325 3.0 12.0 0.00 0.35 0.00 53 1008.7
20260508053124 51 356 3.0 12.0 0.00 0.35 0.00 53 1008.7
20260508052619 52 17 3.0 12.0 0.00 0.35 0.00 52 1008.6
20260508052353 52 344 4.0 12.0 0.00 0.35 0.00 51 1008.6
20260508051619 52 15 5.0 9.0 0.00 0.35 0.00 51 1008.7
20260508051110 52 342 6.0 12.0 0.00 0.35 0.00 52 1008.7
20260508050610 51 359 4.0 12.0 0.00 0.35 0.00 53 1008.8
20260508045829 52 333 3.0 10.0 0.00 0.35 0.00 52 1008.7
20260508045053 52 303 4.0 10.0 0.00 0.35 0.00 52 1008.8
20260508044542 52 324 4.0 9.0 0.00 0.35 0.00 52 1008.7
20260508044027 52 315 2.0 13.0 0.00 0.35 0.00 52 1008.7
20260508043523 52 300 5.0 13.0 0.00 0.35 0.00 51 1008.6
20260508043017 52 311 4.0 9.0 0.00 0.35 0.00 52 1008.7
20260508042519 52 332 4.0 9.0 0.00 0.35 0.00 52 1008.6
20260508042011 52 334 4.0 9.0 0.00 0.35 0.00 52 1008.7
20260508041506 52 289 3.0 6.0 0.00 0.35 0.00 52 1008.8
20260508041003 52 313 3.0 9.0 0.00 0.35 0.00 51 1008.8
20260508040502 52 335 4.0 9.0 0.00 0.35 0.00 52 1008.8
20260508035956 52 314 3.0 9.0 0.00 0.35 0.35 51 1008.8
20260508035724 53 295 4.0 9.0 0.00 0.35 0.35 51 1008.8
20260508034946 52 289 3.0 8.0 0.00 0.35 0.35 50 1008.7
20260508034444 52 308 2.0 8.0 0.00 0.35 0.35 52 1008.8
20260508033939 53 288 2.0 7.0 0.00 0.35 0.35 52 1008.7
20260508033440 53 309 4.0 7.0 0.00 0.35 0.35 52 1008.7
20260508032937 53 297 2.0 6.0 0.00 0.35 0.35 52 1008.8
20260508032430 53 311 3.0 6.0 0.00 0.35 0.35 53 1008.8
20260508031930 53 283 2.0 4.0 0.00 0.35 0.35 52 1008.9
20260508031424 53 318 3.0 6.0 0.00 0.35 0.35 52 1008.9
20260508030910 53 336 3.0 6.0 0.00 0.35 0.35 51 1008.9
20260508030644 53 313 3.0 6.0 0.00 0.35 0.35 51 1008.8
20260508025908 53 316 2.0 7.0 0.00 0.35 0.35 52 1008.8
20260508025406 52 309 2.0 10.0 0.00 0.35 0.35 52 1008.7
20260508024903 53 320 2.0 10.0 0.00 0.35 0.35 53 1008.7
20260508024356 53 338 2.0 5.0 0.00 0.35 0.35 52 1008.6
20260508023851 52 292 2.0 8.0 0.00 0.35 0.35 52 1008.6
20260508023344 52 286 4.0 8.0 0.00 0.35 0.35 53 1008.6
20260508022846 52 295 2.0 6.0 0.00 0.35 0.35 54 1008.6
20260508022339 52 297 2.0 6.0 0.00 0.35 0.35 53 1008.9
20260508021842 52 317 2.0 6.0 0.00 0.35 0.35 54 1008.7
20260508021336 52 305 3.0 7.0 0.00 0.35 0.35 52 1008.8
20260508021111 53 288 2.0 7.0 0.00 0.35 0.35 52 1008.7
20260508020330 53 275 2.0 6.0 0.00 0.35 0.35 53 1008.7
20260508015823 53 302 4.0 6.0 0.00 0.35 0.35 51 1008.7
20260508015317 53 293 2.0 6.0 0.00 0.35 0.35 51 1008.7
20260508014814 53 308 3.0 6.0 0.00 0.35 0.35 52 1008.6
20260508014308 53 312 2.0 6.0 0.00 0.35 0.35 53 1008.5
20260508013802 53 296 2.0 6.0 0.00 0.35 0.35 53 1008.6
20260508013255 53 323 2.0 8.0 0.00 0.35 0.35 53 1008.4
20260508012749 53 302 3.0 9.0 0.00 0.35 0.35 51 1008.4
20260508012245 53 335 3.0 9.0 0.00 0.35 0.35 52 1008.3
20260508011740 53 307 2.0 5.0 0.00 0.35 0.35 53 1008.2
20260508011234 53 284 2.0 4.0 0.00 0.35 0.35 54 1008.2
20260508010722 53 283 2.0 6.0 0.00 0.35 0.35 52 1008.2
20260508010209 53 318 3.0 6.0 0.00 0.35 0.35 54 1008.2
20260508005930 53 302 2.0 5.0 0.00 0.35 0.35 54 1008.1
20260508005159 53 300 2.0 5.0 0.00 0.35 0.35 52 1008.0
20260508004659 54 300 2.0 5.0 0.00 0.35 0.35 52 1007.9
20260508004153 54 356 2.0 5.0 0.00 0.35 0.35 53 1007.6
20260508003652 54 11 2.0 6.0 0.00 0.36 0.35 52 1007.5
20260508003147 54 271 2.0 6.0 0.00 0.36 0.35 52 1007.5
20260508002642 54 318 2.0 5.0 0.00 0.36 0.35 51 1007.4
20260508002138 55 336 2.0 5.0 0.00 0.36 0.35 51 1007.4
20260508001622 55 328 1.0 6.0 0.00 0.36 0.35 53 1007.3
20260508001119 55 317 2.0 6.0 0.00 0.36 0.35 52 1007.3
20260508000612 55 323 2.0 7.0 0.00 0.37 0.35 53 1007.3
20260508000105 55 310 2.0 7.0 0.00 0.37 0.35 54 1007.3
20260507235602 55 330 2.0 6.0 0.00 0.37 0.35 59 1007.2
20260507235055 55 6 1.0 6.0 0.00 0.37 0.35 66 1007.2
20260507234823 55 328 2.0 6.0 0.00 0.37 0.35 65 1007.2
20260507234051 55 310 0.0 1.0 0.00 0.37 0.35 73 1007.2
20260507233544 55 310 0.0 2.0 0.00 0.37 0.35 73 1007.2
20260507233033 55 310 0.0 2.0 0.00 0.37 0.35 74 1007.0
20260507232525 55 310 1.0 4.0 0.00 0.37 0.35 74 1007.1
20260507232022 56 310 0.0 4.0 0.00 0.38 0.35 74 1007.1
20260507231541 56 173 1.0 4.0 0.00 0.39 0.35 73 1006.9
20260507231533 56 174 1.0 3.0 0.00 0.38 0.35 74 1007.0
20260507230518 56 173 2.0 4.0 0.00 0.39 0.35 73 1006.9
20260507225958 56 157 1.0 3.0 0.00 0.39 0.35 74 1006.7
20260507225452 56 159 1.0 3.0 0.00 0.39 0.35 73 1006.7
20260507224954 56 176 1.0 4.0 0.00 0.39 0.35 73 1006.7
20260507224448 56 177 2.0 4.0 0.00 0.39 0.35 73 1006.6
20260507223935 56 193 2.0 7.0 0.00 0.40 0.35 73 1006.6
20260507223431 56 149 1.0 7.0 0.00 0.40 0.35 73 1006.5
20260507222927 56 169 2.0 5.0 0.00 0.40 0.35 73 1006.6
20260507222426 56 179 2.0 6.0 0.00 0.40 0.35 73 1006.5
20260507221921 56 190 3.0 6.0 0.00 0.40 0.35 72 1006.6
20260507221650 56 138 4.0 7.0 0.00 0.40 0.35 72 1006.6
20260507220908 56 171 2.0 9.0 0.00 0.40 0.35 71 1006.5
20260507220409 56 181 3.0 9.0 0.00 0.40 0.35 71 1006.6
20260507215906 56 192 3.0 8.0 0.00 0.40 0.35 70 1006.5
20260507215405 57 144 3.0 7.0 0.00 0.40 0.35 70 1006.5
20260507214859 57 138 2.0 6.0 0.00 0.40 0.35 70 1006.6
20260507214356 57 134 3.0 6.0 0.00 0.40 0.35 70 1006.4
20260507213855 57 158 1.0 8.0 0.00 0.40 0.35 70 1006.5
20260507213350 57 192 3.0 8.0 0.00 0.40 0.35 70 1006.4
20260507212845 56 162 2.0 6.0 0.00 0.40 0.35 69 1006.5
20260507212620 56 161 2.0 8.0 0.00 0.40 0.35 68 1006.4
20260507212616 56 94 3.0 6.0 0.00 0.40 0.35 69 1006.4
20260507211558 57 205 3.0 8.0 0.00 0.40 0.35 66 1006.4
20260507210828 56 175 4.0 9.0 0.00 0.40 0.35 65 1006.4
20260507210824 57 137 2.0 9.0 0.00 0.40 0.35 66 1006.4
20260507205817 56 178 4.0 8.0 0.00 0.40 0.35 64 1006.4
20260507205309 56 115 4.0 10.0 0.00 0.40 0.35 66 1006.4
20260507204804 56 195 4.0 10.0 0.00 0.40 0.35 66 1006.3
20260507204257 56 220 2.0 9.0 0.00 0.40 0.35 67 1006.2
20260507203755 56 193 3.0 8.0 0.00 0.40 0.35 68 1006.1
20260507203246 56 113 2.0 8.0 0.00 0.40 0.35 67 1006.2
20260507202742 56 172 4.0 10.0 0.00 0.40 0.35 67 1006.3
20260507202235 56 136 4.0 10.0 0.00 0.40 0.35 68 1006.3
20260507201730 56 138 3.0 10.0 0.00 0.40 0.35 70 1006.2
20260507201223 56 183 5.0 10.0 0.00 0.40 0.35 69 1006.2
20260507200720 56 110 3.0 11.0 0.00 0.40 0.35 68 1006.2
20260507200221 56 165 3.0 11.0 0.00 0.40 0.35 68 1006.2
20260507195713 56 172 6.0 11.0 0.00 0.40 0.35 68 1006.4
20260507195214 56 204 3.0 11.0 0.00 0.40 0.35 69 1006.3
20260507194711 57 152 6.0 11.0 0.00 0.40 0.35 67 1006.4
20260507194210 57 151 3.0 10.0 0.00 0.40 0.35 66 1006.5
20260507193706 56 154 4.0 10.0 0.00 0.40 0.35 66 1006.4
20260507193203 56 150 5.0 12.0 0.00 0.40 0.35 66 1006.5
20260507192657 56 167 5.0 12.0 0.00 0.40 0.35 67 1006.6
20260507192153 56 203 4.0 9.0 0.00 0.40 0.35 69 1006.7
20260507191646 56 280 4.0 8.0 0.00 0.40 0.35 71 1006.8
20260507191141 56 212 2.0 10.0 0.00 0.40 0.35 71 1006.9
20260507190932 56 198 3.0 10.0 0.00 0.40 0.35 70 1006.8
20260507190136 56 185 6.0 11.0 0.00 0.40 0.35 69 1006.9